Dati Storici

Data ora Umidita' aria (%) Temperatura aria (°C) Rad globale (W/m²) Gonioanemometro (°) Tacoanemometro (m/s) Pioggia (mm)
02-07-2020 20:10 71.8 % 24.926 -72.59 -0.029 0 0
02-07-2020 20:00 70.4 % 25.291 -68.248 -0.03 0 0
02-07-2020 19:50 69.7 % 25.589 -69.76 -0.032 0 0
02-07-2020 19:40 69.1 % 25.629 -67.865 0.811 0 0
02-07-2020 19:30 68.4 % 26.046 -75.014 1.405 0 0
02-07-2020 19:20 67.9 % 26.853 -70.297 0.723 0 0
02-07-2020 19:10 67.7 % 27.338 -66.029 0.536 0 0
02-07-2020 19:00 68.6 % 27.255 -76.934 -0.041 0 0
02-07-2020 18:50 68.4 % 26.904 -75.238 2.218 0 0
02-07-2020 18:40 69.2 % 26.951 -63.01 1.22 0 0
02-07-2020 18:30 69.4 % 26.746 -59.26 0.853 0 0
02-07-2020 18:20 69.1 % 26.665 115.73 1.091 0 0
02-07-2020 18:10 68.7 % 26.775 49.399 1.928 0 0
02-07-2020 18:00 66.8 % 26.754 29.983 3.509 0 0
02-07-2020 17:50 65.5 % 27.244 -7.323 1.736 0 0
02-07-2020 17:40 64.2 % 28.035 19.18 0.607 0 0
02-07-2020 17:30 63.3 % 28.423 17.573 0.489 0 0
02-07-2020 17:20 62.7 % 28.839 97.211 2.325 0 0
02-07-2020 17:10 63 % 28.661 66.807 1.561 0 0
02-07-2020 17:00 62.7 % 28.757 6.829 1.064 0 0

I dati sono presentati in modo automatico a scopo informativo. In seguito a verifica i dati possono subire modifiche o essere invalidati e non riportati negli archivi definitivi.